Regional Weather Roundup
Issued by NWS Little Rock, AR

Home | Current Version | Previous Version | Text Only | Print | Product List | Glossary On
Versions: 1 2 3 4 5 6 7 8 9 10 11 12 13 14 15 16 17 18 19 20 21 22 23 24 25 26 27 28 29 30 31 32
000
ASUS44 KLZK 250005
RWRLZK

WEATHER ROUNDUP FOR ARKANSAS
NATIONAL WEATHER SERVICE LITTLE ROCK AR
600 PM CST TUE JAN 24 2017

NOTE: "FAIR" INDICATES FEW OR NO CLOUDS BELOW 12,000 FEET WITH NO
SIGNIFICANT WEATHER AND/OR OBSTRUCTIONS TO VISIBILITY.

ARZ001-003-010-029-250100-
NORTHWEST ARKANSAS

CITY           SKY/WX    TMP DP  RH WIND       PRES   REMARKS
FAYETTEVILLE   CLEAR     62  43  49 S10G24    29.58R
6HR MIN TEMP:  61; 6HR MAX TEMP:  66;

FORT SMITH     CLEAR     67  45  45 S7        29.59R
6HR MIN TEMP:  65; 6HR MAX TEMP:  75;

HARRISON       CLEAR     59  40  49 S17       29.60S
6HR MIN TEMP:  59; 6HR MAX TEMP:  66;

BENTONVILLE    CLEAR    N/A N/A N/A S14       29.56R
ROGERS         CLEAR     62  42  47 S15       29.57R
6HR MIN TEMP:  62; 6HR MAX TEMP:  69;

SILOAM SPGS    CLEAR     63  39  42 S13       29.55S
6HR MIN TEMP:  63; 6HR MAX TEMP:  66;

HIGHFILL       CLEAR     63  41  44 S14       29.55R
6HR MIN TEMP:  63; 6HR MAX TEMP:  68; 6HR PCP: TRACE;

SPRINGDALE     CLEAR     63  41  45 S17G29    29.58R
$$

ARZ004-005-016-250100-
NORTH CENTRAL ARKANSAS

CITY           SKY/WX    TMP DP  RH WIND       PRES   REMARKS
BATESVILLE     CLEAR     55  41  58 SE7       29.71R
6HR MIN TEMP:  55; 6HR MAX TEMP:  63;

FLIPPIN        CLEAR     61  37  41 SE8       29.61R
6HR MIN TEMP:  59; 6HR MAX TEMP:  66;

MTN HOME       CLEAR     58  40  51 S10       29.62R
6HR MIN TEMP:  55; 6HR MAX TEMP:  65;

$$

ARZ040-041-250100-
WEST CENTRAL ARKANSAS

CITY           SKY/WX    TMP DP  RH WIND       PRES   REMARKS
MENA           CLEAR     68  50  52 SE6       29.65R
MOUNT IDA      CLEAR     64  44  48 CALM      29.64R
6HR MIN TEMP:  63; 6HR MAX TEMP:  71;

$$

ARZ009-017-025-026-028-250100-
NORTHEAST ARKANSAS

CITY           SKY/WX    TMP DP  RH WIND       PRES   REMARKS
CORNING        FAIR      52  45  76 SE5       29.72R
JONESBORO      CLEAR     55  42  61 SE13      29.71F
6HR MIN TEMP:  52; 6HR MAX TEMP:  58;

NEWPORT        CLEAR     55  46  71 MISG      29.70F
6HR MIN TEMP:  54; 6HR MAX TEMP:  60;

WALNUT RIDGE   CLEAR     52  41  66 S7        29.71R
6HR MIN TEMP:  52; 6HR MAX TEMP:  59;

BLYTHEVILLE    CLEAR     55  38  52 SE10      29.73F
6HR MIN TEMP:  52; 6HR MAX TEMP:  59;

$$

ARZ022-023-033-042-044-250100-
CENTRAL ARKANSAS

CITY           SKY/WX    TMP DP  RH WIND       PRES   REMARKS
LITTLE ROCK    PTCLDY    57  48  72 E9        29.70S
6HR MIN TEMP:  56; 6HR MAX TEMP:  66;

JACKSONVILLE   CLEAR     59  49  68 SE8       29.70R
6HR MIN TEMP:  58; 6HR MAX TEMP:  64;

SEARCY         CLEAR     58  44  60 S12       29.73R
6HR MIN TEMP:  58; 6HR MAX TEMP:  64;

HOT SPRINGS    CLEAR     65  44  46 SE6       29.67F
6HR MIN TEMP:  61; 6HR MAX TEMP:  70;

RUSSELLVILLE   CLEAR     64  41  42 SE3       29.65R
6HR MIN TEMP:  59; 6HR MAX TEMP:  71;

CLINTON        FAIR      57  45  62 SE6       29.68S
$$

ARZ036-250100-
EAST ARKANSAS

CITY           SKY/WX    TMP DP  RH WIND       PRES   REMARKS
WEST MEMPHIS   CLEAR     53  42  66 SE10      29.73F
6HR MIN TEMP:  53; 6HR MAX TEMP:  61;

$$

ARZ050-053-066-070-073-250100-
SOUTHWEST ARKANSAS

CITY           SKY/WX    TMP DP  RH WIND       PRES   REMARKS
ARKADELPHIA    FAIR      60  49  66 S5        29.68S
6HR MIN TEMP:  60; 6HR MAX TEMP:  70;

CAMDEN         CLEAR     63  41  45 SE8       29.70F
TEXARKANA      CLEAR     68  52  56 S9        29.65S
6HR MIN TEMP:  66; 6HR MAX TEMP:  73;

EL DORADO      CLEAR     65  47  52 SE6       29.72R
DE QUEEN       CLEAR     65  50  58 E5        29.62R
6HR MIN TEMP:  64; 6HR MAX TEMP:  74;

$$

ARZ056-057-069-250100-
SOUTHEAST ARKANSAS

CITY           SKY/WX    TMP DP  RH WIND       PRES   REMARKS
PINE BLUFF     CLEAR     60  45  57 S12       29.72F
6HR MIN TEMP:  60; 6HR MAX TEMP:  68;

STUTTGART      CLEAR     61  43  51 S12       29.74S
6HR MIN TEMP:  57; 6HR MAX TEMP:  64;

MONTICELLO     CLEAR     61  47  59 SE6       29.74R
6HR MIN TEMP:  61; 6HR MAX TEMP:  67;


$$






USA.gov is the U.S. government's official web portal to all federal, state and local government web resources and services.